Regional Weather Roundup
Issued by NWS

Home | Current Version | Previous Version | Graphics & Text | Print | Product List | Glossary On
Versions: 1 2 3 4 5 6 7 8 9 10 11 12 13 14 15 16 17 18 19 20 21 22 23 24 25 26 27
000
ASUS45 KTFX 142110
RWRMT
MONTANA REGIONAL WEATHER ROUNDUP
NATIONAL WEATHER SERVICE GREAT FALLS MT
200 PM MST THU DEC 14 2017

NOTE: "FAIR" INDICATES FEW OR NO CLOUDS BELOW 12000 FEET WITH NO
SIGNIFICANT WEATHER AND/OR OBSTRUCTIONS TO VISIBILITY.

MTZ001>007-043-142200-
WEST OF THE DIVIDE

CITY           SKY/WX    TMP DP  RH WIND       PRES   REMARKS
KALISPELL      CLOUDY    29  25  85 CALM      30.43F
MISSOULA       FAIR      34  26  72 NW3       30.40F
BUTTE          FAIR      26  20  77 S3        30.31F
MULLAN PASS    FAIR      28  24  85 VRB3      30.29F
ANACONDA         N/A     28  21  74 NE7       30.31F WCI  21
DEER LODGE       N/A     27  25  93 N5        30.36F
EUREKA           N/A     25  21  86 MISG      30.46F
HAMILTON         N/A     27  25  93 N5        30.37F VSB 1/4
LIBBY            N/A     30  23  74 CALM      30.43F
PLAINS           N/A     33  24  70 CALM      30.41
RONAN            N/A     31  26  81 CALM      30.42F
$$

MTZ008-052>055-142200-
SOUTHWEST MONTANA

CITY           SKY/WX    TMP DP  RH WIND       PRES   REMARKS
BOZEMAN        FOG       22  20  92 CALM      30.35F VSB<1/4
DILLON         FAIR      28  22  78 S6        30.33F WCI  22
W YELLOWSTONE  FAIR      25  16  68 CALM      30.34F
ENNIS          CLOUDY    28  23  80 CALM      30.37F
THREE FORKS      N/A     20  18  92 CALM      30.30F VSB 0
TWIN BRIDGES     N/A     29  19  66 SE1       30.29
$$

MTZ009-010-012-014-046-048-049-054-142200-
EAST SLOPES AND CENTRAL MONTANA

CITY           SKY/WX    TMP DP  RH WIND       PRES   REMARKS
CUT BANK       FAIR      45  24  43 S7        30.12F
GREAT FALLS    FAIR      42  21  43 SW18      30.18F
HELENA         PTSUNNY   27  24  89 E8        30.34F WCI  19
CHOTEAU          N/A     48  21  34 S14G22    30.15F
$$

MTZ011-013-016-021-045-047-050-051-142200-
NORTH CENTRAL MONTANA

CITY           SKY/WX    TMP DP  RH WIND       PRES   REMARKS
HAVRE          FAIR      39  25  57 SW12      30.18F WCI  32
LEWISTOWN      FAIR      40  23  50 SW3       30.18F
N BAR RANCH    FAIR      43  18  36 VRB6G13   30.20F
CHINOOK          N/A     41  25  52 W9        30.18F
$$

MTZ017>020-022>027-061-062-142200-
NORTHEAST MONTANA

CITY           SKY/WX    TMP DP  RH WIND       PRES   REMARKS
GLASGOW        FAIR      38  23  55 W14       30.18F WCI  30
GLENDIVE       FAIR      37  23  56 W21       30.19F WCI  26
JORDAN           N/A     39  23  52 W12       30.19F WCI  32
SIDNEY         FAIR      38  24  57 NW20G25   30.16F WCI  28
WOLF POINT     FAIR      41  24  51 W16       30.19F
MALTA          SUNNY     39  25  56 W13G18    30.20F WCI  32
PLENTYWOOD       N/A     34  25  69 W18G26    30.12F WCI  23
POPLAR           N/A     37  23  56 W16       30.18F WCI  28
$$

MTZ028>42-056>058-142200-
SOUTHCENTRAL AND SOUTHEAST MONTANA

CITY           SKY/WX    TMP DP  RH WIND       PRES   REMARKS
BAKER          CLOUDY    32  28  85 NW7       30.19F WCI  26
BILLINGS       FAIR      46  21  37 W13       30.22F
LIVINGSTON     FAIR      37  25  61 W21       30.26F WCI  26
MILES CITY     FAIR      39  21  48 W15       30.22F WCI  31
BIG TIMBER     SUNNY     39  23  52 W29G37    30.25F WCI  28
FORSYTH          N/A     37  21  52 W12       30.23F WCI  30
LAUREL           N/A     48  19  32 W13G20    30.23F
ROUNDUP          N/A     46  19  34 SW6       30.10F
$$

REGIONAL REPORTS...DAKOTAS

CITY           SKY/WX    TMP DP  RH WIND       PRES   REMARKS
WILLISTON      CLOUDY    37  24  59 NW16G25   30.15F WCI  28
MINOT          CLOUDY    35  27  72 W13       30.06F WCI  26
DICKINSON      PTSUNNY   32  24  72 NW16      30.12F WCI  21
BEACH          CLOUDY    32  27  80 NW16      30.20F WCI  21
CROSBY         CLOUDY    34  27  75 NW18G25   30.11S WCI  23
TIOGA          CLOUDY    32  28  86 NW16G23   30.11F WCI  21
WATFORD CITY   CLOUDY    36  25  64 W17       30.13F WCI  25
BISMARCK       CLOUDY    35  25  66 NW8       30.12S WCI  29
GRAND FORKS    FLURRIES  21  17  84 N7        30.06S WCI  12
FARGO          CLOUDY    24  19  81 NW8       30.07F WCI  15
BUFFALO SD       N/A     34  27  75 NW18      30.12S WCI  23
RAPID CITY     CLOUDY    35  22  58 N31G39    30.18S WCI  22
$$

REGIONAL REPORTS...WYOMING/IDAHO/WASHINGTON

CITY           SKY/WX    TMP DP  RH WIND       PRES   REMARKS
GILLETTE       CLOUDY    32  24  72 NW13      30.21F WCI  22
SHERIDAN       FAIR      42  22  44 NW20G25   30.22F
BUFFALO WY     FAIR      39  17  41 NW14      30.21F WCI  31
CODY           FAIR      41  14  33 S6        30.25F
YELLOWSTONE LA   N/A     22  18  85 CALM      30.34F
IDAHO FALLS    CLOUDY    23  21  92 CALM      30.45F FOG
SALMON         PTSUNNY   31  24  75 CALM      30.46F
BOISE          CLOUDY    26  21  81 S3        30.53F
SPOKANE        CLOUDY    31  28  89 N3        30.46F
$$

REGIONAL REPORTS...ALBERTA

CITY           SKY/WX    TMP DP  RH WIND       PRES   REMARKS
EDMONTON       PTSUNNY   36  25  64 SW7       29.99F WCI  30
CALGARY        CLOUDY    41  21  45 W7        30.04F
LETHBRIDGE     PTSUNNY   48  21  34 SW20G26   30.07F
MEDICINE HAT   PTSUNNY   41  28  60 SW9       30.12F
$$

REGIONAL REPORTS...SASKATCHEWAN

CITY           SKY/WX    TMP DP  RH WIND       PRES   REMARKS
SWIFT CURRENT  SUNNY     32  25  74 W15       30.10F WCI  22
REGINA         CLOUDY    30  25  80 NW13      30.08F WCI  20
SASKATOON      PTSUNNY   30  25  80 W13       30.10F WCI  20
$$




USA.gov is the U.S. government's official web portal to all federal, state and local government web resources and services.